Location: Street
(51.1247°N, 2.7429°W)
Time: 10:09:33
(UTC+00:00)

Tiros 1 - Pass Details

Date: 27 November 2020
Orbit: 630 x 663 km, 48.4° (Epoch: 21 January)

Event Time Altitude Azimuth Distance (km) Brightness Sun altitude
Rises 19:22:35 0° 269° (W) 2,988 11.8 -29.5°
Reaches altitude 10° 19:24:57 10° 266° (W) 2,072 10.7 -29.8°
Enters shadow 19:28:10 40° 248° (WSW) 969 8.3 -30.3°
Maximum altitude 19:29:40 61° 187° (S) 743 - -30.6°
Drops below altitude 10° 19:34:20 10° 108° (ESE) 2,050 - -31.3°
Sets 19:36:40 0° 105° (ESE) 2,954 - -31.7°
